TimePDT,TemperatureF,Dew PointF,Humidity,Sea Level PressureIn,VisibilityMPH,Wind Direction,Wind SpeedMPH,Gust SpeedMPH,PrecipitationIn,Events,Conditions,WindDirDegrees,DateUTC
12:00 AM,66.2,57.2,73,29.91,10.0,Calm,Calm,-,N/A,,Mostly Cloudy,0,2012-10-22 07:00:00
12:53 AM,66.9,57.9,73,29.91,10.0,Calm,Calm,-,N/A,,Overcast,0,2012-10-22 07:53:00
1:53 AM,66.9,57.9,73,29.91,10.0,Calm,Calm,-,N/A,,Overcast,0,2012-10-22 08:53:00
2:53 AM,66.9,57.9,73,29.90,10.0,SSE,3.5,-,N/A,,Overcast,160,2012-10-22 09:53:00
3:49 AM,66.2,57.2,73,29.90,10.0,Calm,Calm,-,N/A,,Overcast,0,2012-10-22 10:49:00
3:53 AM,66.9,57.9,73,29.89,10.0,Calm,Calm,-,N/A,,Overcast,0,2012-10-22 10:53:00
5:53 AM,66.0,57.9,75,29.91,10.0,SSW,5.8,-,N/A,,Overcast,200,2012-10-22 12:53:00
6:09 AM,66.2,57.2,73,29.91,10.0,South,3.5,-,N/A,,Overcast,190,2012-10-22 13:09:00
6:53 AM,66.0,57.9,75,29.93,10.0,Calm,Calm,-,N/A,,Overcast,0,2012-10-22 13:53:00
7:53 AM,66.9,57.0,70,29.95,10.0,SSW,3.5,-,N/A,,Overcast,200,2012-10-22 14:53:00
8:26 AM,66.2,57.2,73,29.96,10.0,Calm,Calm,-,N/A,,Overcast,0,2012-10-22 15:26:00
8:53 AM,66.9,55.9,68,29.96,10.0,Variable,3.5,-,N/A,,Overcast,0,2012-10-22 15:53:00
10:13 AM,69.8,55.4,60,29.98,10.0,South,5.8,-,N/A,,Mostly Cloudy,180,2012-10-22 17:13:00
10:53 AM,71.1,55.0,57,29.99,10.0,SSW,8.1,-,N/A,,Mostly Cloudy,210,2012-10-22 17:53:00
11:53 AM,72.0,55.0,55,29.98,10.0,SSW,10.4,-,N/A,,Mostly Cloudy,200,2012-10-22 18:53:00
12:53 PM,72.0,53.1,51,29.98,10.0,SW,6.9,-,N/A,,Overcast,230,2012-10-22 19:53:00
1:53 PM,72.0,53.1,51,29.95,10.0,SSW,6.9,-,N/A,,Mostly Cloudy,210,2012-10-22 20:53:00
2:53 PM,73.0,52.0,48,29.94,10.0,South,9.2,16.1,N/A,,Scattered Clouds,190,2012-10-22 21:53:00
3:53 PM,72.0,54.0,53,29.94,10.0,SW,9.2,-,N/A,,Scattered Clouds,220,2012-10-22 22:53:00
4:53 PM,71.1,53.1,53,29.94,10.0,Variable,3.5,-,N/A,,Scattered Clouds,0,2012-10-22 23:53:00
5:53 PM,69.1,54.0,58,29.94,10.0,Variable,3.5,-,N/A,,Scattered Clouds,0,2012-10-23 00:53:00
6:53 PM,68.0,53.1,59,29.96,10.0,Variable,4.6,-,N/A,,Overcast,0,2012-10-23 01:53:00
7:09 PM,66.2,53.6,64,29.97,10.0,Variable,5.8,-,N/A,,Overcast,0,2012-10-23 02:09:00
7:53 PM,66.9,53.1,61,29.97,10.0,WNW,5.8,-,N/A,,Overcast,290,2012-10-23 02:53:00
8:53 PM,66.9,53.1,61,29.97,10.0,Variable,3.5,-,N/A,,Overcast,0,2012-10-23 03:53:00
9:53 PM,66.0,53.1,63,29.97,10.0,WNW,3.5,-,N/A,,Clear,290,2012-10-23 04:53:00
11:53 PM,64.9,53.1,65,29.97,10.0,Calm,Calm,-,N/A,,Overcast,0,2012-10-23 06:53:00